Flag for Croatia Weather past 2 weeks in Zagreb, Croatia

Now
41 °F

Clear.


Feels Like: 41 °F
Forecast: 28 / 37 °F
Wind: No wind

Location: Zagreb / Pleso

Current Time: Jan 31, 2015 at 5:34:21 PM

Latest Report: Jan 31, 2015 at 5:00 PM


Visibility: 10 mi

Pressure: 29.18 "Hg

Humidity: 70%

Dew point: 32 °F

Location of ZagrebLocation

Historic Weather in Zagreb — Graph

°F

Zagreb temperature yesterday

Maximum temperature yesterday: 45 °F (at 1:00 PM)
Minimum temperature yesterday: 32 °F (at 5:30 PM)
Average temperature yesterday: 36 °F

Past Weeks' High & Low Weather Summary

 TemperatureHumidityPressure
High68 °F (Jan 28, 3:00 PM)100% (Jan 18, 5:00 AM)30.27 "Hg (Jan 18, 5:00 AM)
Low27 °F (Jan 29, 1:00 AM)45% (Jan 17, 2:30 PM)28.74 "Hg (Jan 30, 12:00 PM)
Average39 °F87%29.83 "Hg
* Reported Jan 16 4:00 PM — Jan 31 4:30 PM, Zagreb, Weather by CustomWeather, © 2014

Note: Actual official high and low records may vary slightly from our data, if they occured in-between our weather recording intervals... More about our weather records

Advertising

Zagreb weather history for previous 24 hours

 ConditionsComfort  
Time TempWeatherWind HumidityBarometerVisibility
4:30 PM
Jan 31
43 °FSunny.2 mph66%29.18 "Hg10 mi
4:00 PM46 °FSunny.No wind62%29.18 "Hg10 mi
3:30 PM45 °FSunny.No wind61%29.18 "Hg10 mi
3:00 PM43 °FSunny.2 mph71%29.18 "Hg10 mi
2:30 PM43 °FSunny.No wind66%29.18 "Hg10 mi
2:00 PM43 °FSunny.2 mph66%29.18 "Hg10 mi
1:30 PM41 °FSunny.No wind70%29.18 "Hg10 mi
1:00 PM41 °FSunny.2 mph70%29.18 "Hg10 mi
12:30 PM41 °FSunny.2 mph70%29.18 "Hg10 mi
12:00 PM39 °FSunny.2 mph75%29.18 "Hg10 mi
11:30 AM37 °FPassing clouds.3 mph75%29.18 "HgN/A
11:00 AM37 °FPassing clouds.5 mph81%29.18 "HgN/A
10:30 AM37 °FSunny.2 mph81%29.18 "Hg10 mi
10:00 AM37 °FSunny.1 mph81%29.15 "Hg10 mi
9:30 AM36 °FSunny.1 mph87%29.15 "Hg10 mi
9:00 AM34 °FSunny.No wind93%29.15 "Hg10 mi
8:30 AM30 °FFog.1 mph93%29.15 "HgN/A
8:00 AM28 °FFog.6 mph100%29.12 "HgN/A
7:30 AM30 °FSunny.3 mph93%29.12 "Hg10 mi
7:00 AM30 °FClear.3 mph93%29.12 "Hg10 mi
6:30 AM30 °FClear.3 mph93%29.09 "Hg10 mi
6:00 AM30 °FClear.No wind93%29.09 "Hg10 mi
5:30 AM32 °FClear.6 mph93%29.06 "Hg10 mi
5:00 AM32 °FClear.7 mph93%29.06 "Hg10 mi
4:00 AM32 °FPassing clouds.8 mph93%29.03 "HgN/A
3:30 AM34 °FClear.8 mph93%29.03 "Hg10 mi
3:00 AM34 °FClear.8 mph93%29.03 "Hg10 mi
2:30 AM34 °FClear.7 mph93%29.03 "Hg10 mi
2:00 AM34 °FClear.7 mph93%29.00 "Hg10 mi
1:30 AM32 °FClear.6 mph100%29.00 "Hg10 mi
1:00 AM32 °FPassing clouds.5 mph100%28.97 "HgN/A
12:30 AM32 °FLight snow. Low clouds.7 mph100%28.97 "Hg3 mi
12:00 AM32 °FLight snow. Low clouds.7 mph100%28.97 "Hg2 mi
11:30 PM
Jan 30
32 °FLight snow. Low clouds.5 mph100%28.94 "Hg1 mi
11:00 PM32 °FLight snow. Low clouds.5 mph100%28.94 "Hg2 mi
10:30 PM32 °FLight snow. Mostly cloudy.6 mph100%28.91 "Hg2 mi
10:00 PM32 °FLight snow. Overcast.2 mph100%28.91 "Hg2 mi
9:30 PM32 °FLight snow. Low clouds.2 mph100%28.91 "Hg2 mi
9:00 PM32 °FLight snow. Mostly cloudy.5 mph100%28.88 "Hg1 mi
8:30 PM32 °FSnow. Partly cloudy.3 mph100%28.85 "Hg1 mi
8:00 PM32 °FLight snow. Passing clouds.1 mph100%28.85 "Hg2 mi
7:30 PM32 °FLight snow. Passing clouds.No wind100%28.85 "Hg2 mi
7:00 PM32 °FLight snow. Mostly cloudy.1 mph100%28.85 "Hg2 mi
6:30 PM32 °FSnow. Mostly cloudy.1 mph100%28.82 "Hg1 mi
6:00 PM32 °FSnow. Low clouds.1 mph100%28.82 "Hg1 mi
5:30 PM32 °FSnow. Low clouds.No wind100%28.82 "Hg1 mi
5:00 PM34 °FRain. Mostly cloudy.6 mph93%28.85 "Hg2 mi
Weather by CustomWeather, © 2014

See weather overviewHow to use our weather pages